Wise, VA

12:16 AM EST on November 19, 2019 (GMT -0500)
Lonesome Pine

Weather History for KLNP - September, 2019

Change the Weather History Date:

Thursday, September 12, 2019

  Actual Average Record
Temperature  
Mean Temperature 78 °F -  
Max Temperature 89 °F 73 °F 89 °F (2019)
Min Temperature 68 °F 54 °F 21 °F (2002)
Cooling Degree Days 14    
Growing Degree Days 28 (Base 50)    
Moisture  
Dew Point 62 °F    
Average Humidity 63    
Maximum Humidity 100    
Minimum Humidity 29    
Precipitation  
Precipitation 0.00 in - - ()
Sea Level Pressure  
Sea Level Pressure 30.28 in    
Wind  
Wind Speed 2 mph (NW)    
Max Wind Speed 8 mph    
Max Gust Speed -    
Visibility 10 miles    
Events      
Averages and records for this station are not official NWS values.
T = Trace of Precipitation, MM = Missing Value Source: NWS Daily Summary

Daily Weather History Graph

Daily Weather History Graph

Search for Another Location

Airport or City:

Astronomy

Sep. 12, 2019 Rise Set
Actual Time 7:09 AM EDT 7:42 PM EDT
Civil Twilight 6:43 AM EDT 8:08 PM EDT
Nautical Twilight 6:12 AM EDT 8:39 PM EDT
Astronomical Twilight 5:41 AM EDT 9:10 PM EDT
Moon 7:23 PM EDT (9/12) 5:32 AM EDT (9/12)
Length of Visible Light 13h 25m
Length of Day
12h 32m
Waxing Gibbous, 98% of the Moon is Illuminated
Sep 12
Waxing Gibbous
Sep 14
Full
Sep 21
Last Quarter
Sep 28
New
Oct 5
First Quarter

Hourly Weather History & Observations

Time (EDT) Temp. Heat Index Dew Point Humidity Pressure Visibility Wind Dir Wind Speed Gust Speed Precip Events Conditions
12:15 AM 69.8 °F - 64.4 °F 83% 30.30 in 10.0 mi Calm Calm - N/A   Clear
12:35 AM 69.8 °F - 64.4 °F 83% 30.29 in 10.0 mi Calm Calm - N/A   Clear
12:55 AM 69.8 °F - 64.4 °F 83% 30.29 in 10.0 mi Calm Calm - N/A   Clear
1:15 AM 69.8 °F - 64.4 °F 83% 30.28 in 10.0 mi Calm Calm - N/A   Clear
1:35 AM 69.8 °F - 64.4 °F 83% 30.28 in 10.0 mi SW 3.5 mph - N/A   Clear
1:55 AM 69.8 °F - 64.4 °F 83% 30.28 in 10.0 mi Calm Calm - N/A   Clear
2:15 AM 69.8 °F - 64.4 °F 83% 30.28 in 10.0 mi Calm Calm - N/A   Clear
2:35 AM 69.8 °F - 66.2 °F 88% 30.28 in 10.0 mi Calm Calm - N/A   Clear
2:55 AM 69.8 °F - 66.2 °F 88% 30.28 in 10.0 mi Calm Calm - N/A   Clear
3:15 AM 69.8 °F - 68.0 °F 94% 30.27 in 10.0 mi Calm Calm - N/A   Clear
3:35 AM 68.0 °F - 66.2 °F 94% 30.27 in 10.0 mi Calm Calm - N/A   Clear
3:55 AM 69.8 °F - 68.0 °F 94% 30.27 in 10.0 mi SW 3.5 mph - N/A   Clear
4:15 AM 68.0 °F - 68.0 °F 100% 30.27 in 10.0 mi SW 3.5 mph - N/A   Clear
4:35 AM 68.0 °F - 66.2 °F 94% 30.27 in 10.0 mi Calm Calm - N/A   Clear
4:55 AM 68.0 °F - 64.4 °F 88% 30.28 in 10.0 mi Calm Calm - N/A   Clear
5:15 AM 68.0 °F - 68.0 °F 100% 30.28 in 10.0 mi SW 3.5 mph - N/A   Clear
5:35 AM 68.0 °F - 68.0 °F 100% 30.28 in 10.0 mi WSW 3.5 mph - N/A   Clear
5:55 AM 68.0 °F - 68.0 °F 100% 30.28 in 10.0 mi WSW 3.5 mph - N/A   Clear
6:15 AM 68.0 °F - 68.0 °F 100% 30.29 in 10.0 mi SW 3.5 mph - N/A   Clear
6:35 AM 68.0 °F - 68.0 °F 100% 30.29 in 10.0 mi SW 3.5 mph - N/A   Clear
6:55 AM 68.0 °F - 68.0 °F 100% 30.30 in 10.0 mi Calm Calm - N/A   Clear
7:15 AM 68.0 °F - 68.0 °F 100% 30.31 in 10.0 mi Calm Calm - N/A   Clear
7:35 AM 69.8 °F - 68.0 °F 94% 30.32 in 10.0 mi Calm Calm - N/A   Clear
8:15 AM 71.6 °F - 68.0 °F 88% 30.33 in 10.0 mi Calm Calm - N/A   Clear
8:35 AM 73.4 °F - 68.0 °F 83% 30.33 in 10.0 mi Calm Calm - N/A   Clear
8:55 AM 75.2 °F - 66.2 °F 73% 30.33 in 10.0 mi Calm Calm - N/A   Clear
9:15 AM 77.0 °F - 64.4 °F 65% 30.33 in 10.0 mi WNW 3.5 mph - N/A   Clear
9:35 AM 78.8 °F - 64.4 °F 61% 30.33 in 10.0 mi NW 4.6 mph - N/A   Clear
9:55 AM 78.8 °F - 62.6 °F 57% 30.33 in 10.0 mi NNW 5.8 mph - N/A   Clear
10:15 AM 80.6 °F 82.3 °F 64.4 °F 58% 30.33 in 10.0 mi NNW 5.8 mph - N/A   Clear
10:35 AM 80.6 °F 82.3 °F 64.4 °F 58% 30.33 in 10.0 mi North 4.6 mph - N/A   Clear
10:55 AM 80.6 °F 82.3 °F 64.4 °F 58% 30.33 in 10.0 mi North 6.9 mph - N/A   Clear
11:15 AM 82.4 °F 83.4 °F 62.6 °F 51% 30.33 in 10.0 mi NNW 8.1 mph - N/A   Clear
11:35 AM 80.6 °F 81.8 °F 62.6 °F 54% 30.32 in 10.0 mi NNW 5.8 mph - N/A   Clear
11:55 AM 82.4 °F 83.4 °F 62.6 °F 51% 30.32 in 10.0 mi NW 5.8 mph - N/A   Clear
12:15 PM 82.4 °F 83.4 °F 62.6 °F 51% 30.31 in 10.0 mi NNE 6.9 mph - N/A   Clear
12:35 PM 82.4 °F 83.4 °F 62.6 °F 51% 30.31 in 10.0 mi WNW 8.1 mph - N/A   Scattered Clouds
12:55 PM 86.0 °F 86.1 °F 60.8 °F 43% 30.30 in 10.0 mi Calm Calm - N/A   Scattered Clouds
1:15 PM 84.2 °F 84.4 °F 60.8 °F 45% 30.30 in 10.0 mi North 4.6 mph - N/A   Mostly Cloudy
1:35 PM 86.0 °F 85.4 °F 59.0 °F 40% 30.30 in 10.0 mi North 5.8 mph - N/A   Scattered Clouds
1:55 PM 86.0 °F 85.4 °F 59.0 °F 40% 30.29 in 10.0 mi NW 4.6 mph - N/A   Scattered Clouds
2:35 PM 87.8 °F 86.1 °F 55.4 °F 33% 30.27 in 10.0 mi West 5.8 mph - N/A   Scattered Clouds
2:55 PM 89.6 °F 88.1 °F 57.2 °F 33% 30.27 in 10.0 mi WSW 5.8 mph - N/A   Scattered Clouds
3:15 PM 87.8 °F 86.1 °F 55.4 °F 33% 30.26 in 10.0 mi NNW 8.1 mph - N/A   Scattered Clouds
3:35 PM 87.8 °F 86.5 °F 57.2 °F 35% 30.26 in 10.0 mi West 8.1 mph - N/A   Clear
3:55 PM 89.6 °F 87.7 °F 55.4 °F 31% 30.25 in 10.0 mi WNW 8.1 mph - N/A   Scattered Clouds
4:15 PM 89.6 °F 87.7 °F 55.4 °F 31% 30.25 in 10.0 mi WSW 6.9 mph - N/A   Mostly Cloudy
4:35 PM 89.6 °F 87.3 °F 53.6 °F 29% 30.25 in 10.0 mi WNW 4.6 mph - N/A   Scattered Clouds
4:55 PM 89.6 °F 87.3 °F 53.6 °F 29% 30.25 in 10.0 mi West 6.9 mph - N/A   Clear
5:15 PM 87.8 °F 85.7 °F 53.6 °F 31% 30.24 in 10.0 mi West 5.8 mph - N/A   Scattered Clouds
5:35 PM 87.8 °F 86.1 °F 55.4 °F 33% 30.24 in 10.0 mi NNW 5.8 mph - N/A   Scattered Clouds
5:55 PM 87.8 °F 86.1 °F 55.4 °F 33% 30.24 in 10.0 mi North 6.9 mph - N/A   Clear
6:15 PM 87.8 °F 86.1 °F 55.4 °F 33% 30.24 in 10.0 mi NNE 4.6 mph - N/A   Clear
6:35 PM 86.0 °F 84.5 °F 55.4 °F 35% 30.24 in 10.0 mi Calm Calm - N/A   Clear
7:15 PM 82.4 °F 82.0 °F 57.2 °F 42% 30.24 in 10.0 mi Calm Calm - N/A   Clear
7:35 PM 82.4 °F 81.7 °F 55.4 °F 39% 30.24 in 10.0 mi NW 3.5 mph - N/A   Clear
7:55 PM 80.6 °F 80.8 °F 57.2 °F 45% 30.25 in 10.0 mi Calm Calm - N/A   Clear
8:15 PM 80.6 °F 80.8 °F 57.2 °F 45% 30.25 in 10.0 mi NNE 4.6 mph - N/A   Clear
8:55 PM 80.6 °F 80.8 °F 57.2 °F 45% 30.26 in 10.0 mi NNE 4.6 mph - N/A   Scattered Clouds
9:15 PM 78.8 °F - 59.0 °F 51% 30.28 in 10.0 mi North 4.6 mph - N/A   Mostly Cloudy
9:35 PM 78.8 °F - 59.0 °F 51% 30.28 in 10.0 mi NNE 3.5 mph - N/A   Scattered Clouds
9:55 PM 78.8 °F - 59.0 °F 51% 30.28 in 10.0 mi Calm Calm - N/A   Scattered Clouds
10:15 PM 78.8 °F - 59.0 °F 51% 30.28 in 10.0 mi Calm Calm - N/A   Scattered Clouds
10:35 PM 78.8 °F - 59.0 °F 51% 30.28 in 10.0 mi NE 3.5 mph - N/A   Clear
10:55 PM 77.0 °F - 59.0 °F 54% 30.28 in 10.0 mi NE 4.6 mph - N/A   Clear
11:15 PM 77.0 °F - 59.0 °F 54% 30.28 in 10.0 mi NNE 3.5 mph - N/A   Clear
11:55 PM 77.0 °F - 59.0 °F 54% 30.28 in 10.0 mi Calm Calm - N/A   Clear